Flag for Germany Weather past 2 weeks in Altenburg, Thuringia, Germany

Now
34 °F

Clear.


Feels Like: 28 °F
Forecast: 35 / 44 °F
Wind: 7 mph from West

Location: Gera-Leumnitz

Current Time: Mar 3, 2015 at 6:52:17 AM

Latest Report: Mar 3, 2015 at 6:00 AM


Visibility: 38 mi

Pressure: 30.06 "Hg

Humidity: 70%

Dew point: 25 °F

Location of AltenburgLocation

Historic Weather in Altenburg — Graph

°F

Altenburg temperature yesterday

Maximum temperature yesterday: 46 °F (at 3:00 PM)
Minimum temperature yesterday: 36 °F (at 11:00 PM)
Average temperature yesterday: 41 °F

Past Weeks' High & Low Weather Summary

 TemperatureHumidityPressure
High47 °F (Feb 27, 3:00 PM)98% (Feb 28, 4:00 AM)30.77 "Hg (Feb 28, 4:00 AM)
Low28 °F (Feb 20, 12:00 AM)38% (Feb 27, 4:00 PM)29.44 "Hg (Feb 21, 1:00 PM)
Average36 °F78%30.00 "Hg
* Reported Feb 16 5:00 AM — Mar 3 5:00 AM, Altenburg, Weather by CustomWeather, © 2015

Note: Actual official high and low records may vary slightly from our data, if they occured in-between our weather recording intervals... More about our weather records

Advertising

Altenburg weather history for previous 24 hours

 ConditionsComfort  
Time TempWeatherWind HumidityBarometerVisibility
5:00 AM
Tue, Mar 3
34 °FClear.9 mph71%30.04 "Hg34 mi
4:00 AM34 °FClear.9 mph74%30.02 "Hg37 mi
3:00 AM35 °FPassing clouds.10 mph72%29.99 "Hg40 mi
2:00 AM35 °FPassing clouds.10 mph73%29.97 "Hg34 mi
1:00 AM37 °FPassing clouds.9 mph63%29.93 "Hg43 mi
12:00 AM36 °FPassing clouds.9 mph68%29.90 "Hg43 mi
11:00 PM
Mon, Mar 2
36 °FOvercast.10 mph72%29.87 "Hg43 mi
10:00 PM36 °FPassing clouds.15 mph75%29.81 "Hg43 mi
9:00 PM38 °FPassing clouds.6 mph65%29.77 "Hg37 mi
8:00 PM37 °FPassing clouds.5 mph66%29.76 "Hg43 mi
7:00 PM40 °FPassing clouds.6 mph57%29.76 "Hg43 mi
6:00 PM41 °FPassing clouds.7 mph53%29.73 "Hg43 mi
5:00 PM44 °FScattered clouds.7 mph47%29.70 "Hg43 mi
4:00 PM45 °FPartly sunny.8 mph45%29.69 "Hg40 mi
3:00 PM46 °FScattered clouds.8 mph45%29.67 "Hg40 mi
2:00 PM44 °FScattered clouds.12 mph47%29.66 "Hg40 mi
1:00 PM44 °FOvercast.8 mph50%29.64 "Hg40 mi
12:00 PM43 °FPartly sunny.13 mph50%29.62 "Hg37 mi
11:00 AM42 °FOvercast.9 mph58%29.59 "Hg37 mi
10:00 AM42 °FOvercast.8 mph69%29.59 "Hg37 mi
9:00 AM40 °FOvercast.8 mph77%29.58 "Hg31 mi
8:00 AM39 °FSprinkles. Partly sunny.7 mph83%29.55 "Hg31 mi
7:00 AM40 °FOvercast.7 mph79%29.50 "Hg37 mi
6:00 AM42 °FSprinkles. Low clouds.10 mph91%29.47 "Hg8 mi
Weather by CustomWeather, © 2015

See weather overviewHow to use our weather pages